Regional Weather Roundup
Issued by NWS Mt. Holly, NJ

Home | Current Version | Previous Version | Text Only | Print | Product List | Glossary On
Versions: 1 2 3 4 5 6 7 8 9 10 11 12 13 14 15 16 17 18 19 20 21 22 23 24 25 26 27 28
000
ASUS41 KPHI 182012
RWRPHI

REGIONAL WEATHER ROUNDUP
NATIONAL WEATHER SERVICE MOUNT HOLLY NJ
300 PM EST MON DEC 18 2017

NOTE:  "FAIR" INDICATES FEW OR NO CLOUDS BELOW 12,000 FEET WITH NO
SIGNIFICANT WEATHER AND/OR OBSTRUCTIONS TO VISIBILITY.

 * = STATION DOES NOT REPORT PRECIPITATION (E.G. RAIN, SNOW, ETC.)
        OR FOG.

NJZ015>026-182100-
SOUTHERN NEW JERSEY

CITY           SKY/WX    TMP DP  RH WIND       PRES   REMARKS
POMONA         CLOUDY    53  35  50 W10       29.99S
WILDWOOD*      SUNNY     50  37  61 W5        30.02S
MILLVILLE      CLOUDY    50  36  58 W8        30.00F
WRIGHTSTOWN    CLOUDY    48  35  59 W7        29.96S
MOUNT HOLLY    CLOUDY    49  35  58 W5        29.99S
TRENTON        CLOUDY    48  34  58 W7        29.98S

$$
NJZ001>014-182100-
NORTHERN NEW JERSEY

CITY           SKY/WX    TMP DP  RH WIND       PRES   REMARKS
SUSSEX         CLOUDY    40  33  76 S3        29.95F
ANDOVER*         N/A     42  32  67 S5        29.95F
MORRISTOWN     MOSUNNY   46  36  66 CALM      29.97F
NEWARK         PTSUNNY   48  34  58 CALM      29.97F
TETERBORO      CLOUDY    45  34  65 CALM      29.97S
CALDWELL       PTSUNNY   44  35  70 VRB3      29.98R
SOMERVILLE     SUNNY     48  36  63 CALM      29.96S
ALLAIRE*       MOSUNNY   49  35  58 W7        29.98
TOMS RIVER*    MOSUNNY   50  34  54 W9        29.99R

$$
PAZ043-044-047-054-055-060>062-066>071-182100-
EASTERN PENNSYLVANIA

CITY           SKY/WX    TMP DP  RH WIND       PRES   REMARKS
PHILADELPHIA   CLOUDY    50  33  52 SW8       29.99F
NORTH PHILA    CLOUDY    50  34  54 NW6       30.00S
BLUE BELL*     PTSUNNY   46  34  61 SW3       29.99S
DOYLESTOWN     CLOUDY    46  34  62 SW6       29.97S
QUAKERTOWN*    MOSUNNY   46  32  57 SW6       29.98S
PERKASIE*      FAIR      46  34  61 SW5       29.98S
POTTSTOWN      SUNNY     48  34  58 W3        29.99S HAZE
LANCASTER      CLOUDY    46  35  65 W8        29.98F
COATESVILLE    SUNNY     46  36  66 W6        29.99F
READING        CLOUDY    46  36  68 W10       29.97F
ALLENTOWN      PTSUNNY   47  35  63 SW7       29.97F
MOUNT POCONO   CLOUDY    39  31  72 W12       29.90F WCI  32
HAZLETON       CLOUDY    43  32  65 SW3       29.95S
LEHIGHTON      CLOUDY    45  32  61 SW6       29.96S
WILKES BARRE   CLOUDY    42  32  67 SW10      29.93F

$$
DEZALL-MDZ008-012-015-019-020-182100-
DELAWARE AND EASTERN MARYLAND

CITY           SKY/WX    TMP DP  RH WIND       PRES   REMARKS
WILMINGTON     PTSUNNY   51  34  52 NW8       30.00F
DOVER          PTSUNNY   54  41  61 W9        30.00S
GEORGETOWN     SUNNY     55  35  47 VRB6      30.02R
EASTON         MOSUNNY   55  36  47 CALM      30.05S
ABERDEEN       PTSUNNY   50  36  57 SW6       30.01F
PATUXENT       MOSUNNY   50  41  71 E7        30.00F
OCEAN CITY     SUNNY     55  37  50 W6        30.02S
WALLOPS ISLAND PTSUNNY   53  35  50 W3        30.03F
CAMBRIDGE      SUNNY     54  37  54 NW3       30.01F
SALISBURY      SUNNY     54  37  52 W7        30.01F

$$
PAZ001-021-NYZ056-072-MDZ011-DCZ001-182100-
OTHER NEARBY LOCATIONS

CITY           SKY/WX    TMP DP  RH WIND       PRES   REMARKS
HARRISBURG     CLOUDY    46  35  65 W8        29.99S
STATE COLLEGE  CLOUDY    39  34  81 SW13      29.94F WCI  32
WILLIAMSPORT   CLOUDY    42  32  67 SE3       29.95F
BINGHAMTON     CLOUDY    36  30  79 SW9       29.87F WCI  29
NEW YORK CITY  CLOUDY    44  34  67 CALM      29.99S
BALTIMORE      CLOUDY    56  37  49 SW7       29.99F
WASHINGTON DC  PTSUNNY   52  38  58 S9        30.00F

$$




USA.gov is the U.S. government's official web portal to all federal, state and local government web resources and services.